Regional Weather Roundup
Issued by NWS

Home | Current Version | Previous Version | Graphics & Text | Print | Product List | Glossary On
Versions: 1 2 3 4 5 6 7 8 9 10 11 12 13 14 15 16 17 18 19 20 21 22 23 24 25 26 27 28 29 30 31 32 33 34 35 36 37 38 39 40 41 42 43 44 45 46 47 48 49 50
000
ASUS45 KBOI 071610
RWRID

IDAHO REGIONAL WEATHER ROUNDUP
NATIONAL WEATHER SERVICE BOISE ID
1000 AM MDT TUE JUL 07 2015

NOTE: "FAIR" INDICATES FEW OR NO CLOUDS BELOW 12000 FEET
WITH NO SIGNIFICANT WEATHER AND/OR OBSTRUCTIONS TO VISIBILITY

IDZ012-014-071700-
SOUTHWEST IDAHO


CITY           SKY/WX    TMP DP  RH WIND       PRES   REMARKS
BOISE          PTSUNNY   82  49  31 SE7       30.00R
CALDWELL       PTSUNNY   81  48  32 SW12      30.00S
MOUNTAIN HOME  PTSUNNY   77  53  44 SE13      30.01S
$$

IDZ016-017-071700-
SOUTHCENTRAL IDAHO


CITY           SKY/WX    TMP DP  RH WIND       PRES   REMARKS
BURLEY         SUNNY     74  53  48 E6        30.08S
JEROME         SUNNY     76  51  41 E9        30.08F
TWIN FALLS     SUNNY     78  53  41 NE7       30.06F
$$

IDZ019>023-071700-
SOUTHEAST IDAHO


CITY           SKY/WX    TMP DP  RH WIND       PRES   REMARKS
IDAHO FALLS    NOT AVBL
POCATELLO      MOSUNNY   73  53  49 VRB3      30.12S
REXBURG        SUNNY     69  53  56 CALM      30.13F
$$

IDZ006-010-011-018-031-032-071700-
CENTRAL IDAHO MOUNTAINS


CITY           SKY/WX    TMP DP  RH WIND       PRES   REMARKS
MCCALL         PTSUNNY   66  47  50 W7        30.13R
HAILEY         MOSUNNY   72  46  40 NW9       30.16F
STANLEY          N/A     58  47  66 N6        30.25F
SALMON         SUNNY     66  46  48 CALM      30.10F
CHALLIS        SUNNY     64  49  57 CALM      30.17F
$$

IDZ002-004-006-007-026-071700-
NORTHERN IDAHO


CITY           SKY/WX    TMP DP  RH WIND       PRES   REMARKS
LEWISTON       MOSUNNY   80  51  36 N5        29.93S
LOWELL           N/A     74  50  42 CALM      29.99F
COEUR D`ALENE  MOSUNNY   73  19  13 NE12      29.99S
MULLAN PASS    MOSUNNY   64  44  48 CALM      30.19R
$$



USA.gov is the U.S. government's official web portal to all federal, state and local government web resources and services.